Regional Weather Roundup
Issued by NWS Goodland, KS

Home | Current Version | Previous Version | Graphics & Text | Print | Product List | Glossary On
Versions: 1 2 3 4 5 6 7 8 9 10 11 12 13 14 15 16 17 18 19 20 21 22 23 24 25 26 27 28 29 30 31 32 33 34 35 36 37 38 39 40 41 42 43 44 45 46 47 48 49 50
000
ASUS43 KGLD 010208
RWRGLD

GOODLAND FORECAST AREA HOURLY WEATHER ROUNDUP
NATIONAL WEATHER SERVICE GOODLAND KS
800 PM MDT MON AUG 31 2015

...OFFICIAL OBSERVATIONS...

CITY           SKY/WX    TMP DP  RH WIND       PRES   REMARKS
GOODLAND KS    PTCLDY    76  52  43 SE6       29.93R
HILL CITY KS   CLEAR     86  51  29 S10       29.88R
IMPERIAL NEB   MOCLDY    78  59  51 N7        29.93R
MCCOOK NEB     CLEAR     82  62  50 E10       29.88R
AKRON CO       CLOUDY    68  56  65 W24G30    30.10R
BURLINGTON CO  MOCLDY    76  51  41 E7        29.98R
LIMON CO       CLOUDY    61  57  87 NW10      30.15R
$$

...UNOFFICIAL OBSERVATIONS...

CITY           SKY/WX    TMP DP  RH WIND       PRES   REMARKS
COLBY KS       CLEAR     82  55  39 SE9       29.93R
GOVE KS          N/A     81  32  17 MISG        N/A
LENORA KS        N/A     79  32  18 MISG        N/A
NORTON KS      CLEAR     81  45  28 S8        29.87R
SHARON SPRINGS   N/A     81  54  38 E12         N/A
TRENTON NEB      N/A     80  32  17 NE8         N/A
KIT CARSON CO    N/A     77  55  45 MISG        N/A
YUMA CO          N/A     78  54  42 CALM        N/A
$$


USA.gov is the U.S. government's official web portal to all federal, state and local government web resources and services.